Location: Tierra del Sol
(32.6128°N, 116.3319°W)
Time: 03:04:58
(UTC-08:00)

Vanguard 3 - Visible Passes

Search period start: 16 December 2017 00:00
Search period end: 26 December 2017 00:00
Orbit: 509 x 3263 km, 33.3° (Epoch: 15 December)

Date Brightness Start Highest point End Pass type
(mag) Time Alt. Az. Time Alt. Az. Time Alt. Az.
16 Dec 10.2 18:02:40 10° SW 18:04:10 11° SSW 18:05:49 10° S visible
21 Dec 11.5 05:11:16 10° S 05:18:01 14° SSE 05:23:32 10° ESE visible
22 Dec 10.9 06:05:45 10° SSW 06:17:26 27° SSE 06:25:16 10° E visible
23 Dec 11.3 04:51:50 10° S 05:02:05 19° SSE 05:09:54 10° ESE visible
24 Dec 11.7 03:41:16 10° SSE 03:46:21 12° SE 03:50:59 10° SE visible
24 Dec 10.7 05:47:43 10° SSW 06:01:31 34° SSE 06:10:27 10° E visible
25 Dec 11.1 04:33:07 10° SSW 04:46:01 25° SSE 04:55:29 10° E visible
